Regional Weather Roundup
Issued by NWS Midland/Odessa, TX

Skip options and go directly to product.
Home | Oldest Version | Next Version | Current Version | All | Text Only | Save Text | Print | Product List | Glossary On

Skip product version selection by date and time.   
658
ASUS44 KMAF 210102
RWRMAF
MIDLAND AREA WEATHER ROUNDUP
NATIONAL WEATHER SERVICE MIDLAND TX
800 PM CDT MON OCT 20 2014

...IN SOUTHWEST TEXAS AND SOUTHEAST NEW MEXICO...

CITY           SKY/WX    TMP DP  RH WIND       PRES   REMARKS
ALPINE         CLOUDY    60  56  87 E3        30.17R
ANDREWS        FAIR      67  53  60 SE3       30.07S
ARTESIA        NOT AVBL
BIG SPRING     MOCLDY    73  54  51 E7        30.07R
CARLSBAD       CLOUDY    63  59  87 SE5       30.07R
DRYDEN           N/A     71  61  70 E8        30.01R
FORT STOCKTON  CLOUDY    67  60  78 SE8       30.06R
GUAD PASS      FOG       57  56  96 E25       30.13S VSB 1
HOBBS          CLOUDY    66  50  55 CALM      30.10R
MARFA          MOCLDY    57  54  88 N9        30.12S
MIDLAND AIRPK  CLOUDY    74  52  46 E7        30.06R
MIDLAND INTL   CLOUDY    72  50  45 E6        30.04R
ODESSA         CLOUDY    71  50  47 SE7       30.06R
PECOS          CLOUDY    64  62  93 CALM      30.05R
PRESIDIO       MOCLDY    69  57  66 N16G22    29.98R
SEMINOLE       CLOUDY    67  53  61 CALM      30.09R
SNYDER         MOCLDY    71  55  56 SE7       30.06R
WINK           CLOUDY    67  64  90 SW5       30.04R
$$
...OTHER STATIONS IN TEXAS...

CITY           SKY/WX    TMP DP  RH WIND       PRES   REMARKS
ABILENE        CLEAR     71  54  54 SE6       30.05R
AMARILLO       PTCLDY    68  51  54 CALM      30.09R
AUSTIN         MOCLDY    71  60  68 E6        30.01R
BROWNSVILLE    PTCLDY    78  69  73 NE6       29.91R
CORPUS CHRISTI MOCLDY    74  71  91 NE8       29.96R
DALLAS FTW     PTCLDY    71  59  65 SE7       30.02R
DEL RIO        MOCLDY    74  64  71 CALM      29.97R
EL PASO        MOCLDY    69  52  54 E10       30.03R
HOUSTON INT    PTCLDY    68  59  73 NE5       30.00R
LUBBOCK        PTCLDY    65  53  65 SE8       30.08R
SAN ANGELO     PTCLDY    71  53  52 E7        30.03R
SAN ANTONIO    MOCLDY    77  58  51 E8        30.00R
WACO           PTCLDY    71  59  65 E6        30.02R
WICHITA FALLS  NOT AVBL
$$
...OTHER LOCATIONS IN NEW MEXICO...

CITY           SKY/WX    TMP DP  RH WIND       PRES   REMARKS
ALAMAGORDO     NOT AVBL
ALBUQUERQUE    CLOUDY    61  51  70 S3        30.15S
CANNON AFB     CLOUDY    63  52  66 NW7       30.13R
CLOVIS         MOCLDY    63  48  59 W7        30.15R
HOLLOMAN AFB   NOT AVBL
ROSWELL        CLOUDY    61  57  87 SE16G23   30.10R
RUIDOSO        CLOUDY    54  48  82 E8        30.23S
SANTA FE       PTCLDY    57  43  59 SW13      30.18R
TRUTH OR CONSE HVY RAIN  57  55  93 NE17      30.11R FOG
TUCUMCARI      MOCLDY    67  47  48 SW10      30.09R
$$

USA.gov is the U.S. government's official web portal to all federal, state and local government web resources and services.